Regional Weather Roundup
Issued by NWS

Home | Current Version | Previous Version | Graphics & Text | Print | Product List | Glossary On
Versions: 1 2 3 4 5 6 7 8 9 10 11 12 13 14 15 16 17 18 19 20 21 22 23 24 25 26 27 28 29 30 31 32 33 34 35 36 37 38 39 40 41 42 43 44 45 46 47 48 49 50
000
ASUS43 KLMK 180710
RWRKY
KENTUCKY REGIONAL WEATHER ROUNDUP
NATIONAL WEATHER SERVICE LOUISVILLE KY
200 AM EST MON DEC 18 2017

NOTE "FAIR" INDICATES FEW OR NO CLOUDS BELOW 12,000 FEET
WITH NO SIGNIFICANT WEATHER AND/OR OBSTRUCTIONS TO VISIBILITY.

KYZ001>023-026-027-061>063-070>075-180800-
WESTERN AND SOUTH CENTRAL KENTUCKY

CITY           SKY/WX    TMP DP  RH WIND       PRES   REMARKS
PADUCAH        CLOUDY    45  43  93 SW6       30.12S FOG
HENDERSON      CLOUDY    44  43  96 S8        30.11F FOG
OWENSBORO      CLOUDY    43  43 100 S6        30.12S FOG
HOPKINSVILLE   CLOUDY    45  45 100 SW8       30.12S FOG
BOWLING GREEN  CLOUDY    45  45 100 S3        30.14S FOG
GLASGOW        CLOUDY    44  44 100 S3        30.13S FOG
$$

KYZ024-025-028>034-038-045-046-053-180800-
NORTH CENTRAL KENTUCKY

CITY           SKY/WX    TMP DP  RH WIND       PRES   REMARKS
LOUISVILLE/SDF CLOUDY    44  41  89 S6        30.10S
LOUISVILLE/LOU CLOUDY    43  42  97 S6        30.11S
FORT KNOX      CLOUDY    42  42  99 SW8       30.09S FOG
$$

KYZ035>037-039>044-047>052-055>060-089>105-180800-
NORTHEAST KENTUCKY

CITY           SKY/WX    TMP DP  RH WIND       PRES   REMARKS
LEXINGTON      CLOUDY    42  39  89 SW6       30.11F
COVINGTON      DRIZZLE   41  40  96 S7        30.08F
FRANKFORT      CLOUDY    43  39  86 SW5       30.10S
$$

KYZ054-064>069-076>088-106>120-180800-
SOUTHEAST KENTUCKY

CITY           SKY/WX    TMP DP  RH WIND       PRES   REMARKS
JACKSON        CLOUDY    40  39  97 CALM      30.12S FOG
LONDON         CLOUDY    43  41  93 CALM      30.13S
SOMERSET       CLOUDY    41  41 100 CALM      30.15S FOG
MIDDLESBORO    CLOUDY    41  41 100 CALM      30.16F
MONTICELLO     CLOUDY    42  42 100 VRB7      30.16R FOG
$$





USA.gov is the U.S. government's official web portal to all federal, state and local government web resources and services.